Overview Statistics Trail Chart Weather Telemetry Raw packets
 

This is the latest recevied weather packets stored in our database for station/object LA4M-10. If no packets are shown the sender has not sent any weather packets the latest 10 day(s).

<< 12 13 14 15 16 17 18 >>
Time Temp. Humidity Pressure Rain* Wind** Luminosity Snow
1788347743 11.11° C 100% 938.2 hPa - - - -
1788346843 11.67° C 100% 938.1 hPa - - - -
1788345943 11.67° C 100% 938 hPa - - - -
1788345043 12.22° C 100% 938.1 hPa - - - -
1788344143 11.67° C 100% 938.2 hPa - - - -
1788343243 11.67° C 100% 938.1 hPa - - - -
1788342343 11.67° C 100% 938.2 hPa - - - -
1788341442 11.67° C 100% 938.1 hPa - - - -
1788340542 12.22° C 100% 938.1 hPa - - - -
1788339642 11.67° C 100% 938.2 hPa - - - -
1788338742 12.22° C 100% 938 hPa - - - -
1788337842 11.67° C 100% 937.9 hPa - - - -
1788336942 11.11° C 100% 938 hPa - - - -
1788336042 10.56° C 100% 937.8 hPa - - - -
1788335142 11.11° C 100% 938 hPa - - - -
1788334242 11.11° C 100% 937.9 hPa - - - -
1788333342 10.56° C 100% 937.8 hPa - - - -
1788332441 10.56° C 100% 937.6 hPa - - - -
1788331541 10.56° C 100% 937.7 hPa - - - -
1788330660 10.56° C 100% 937.7 hPa - - - -
1788329741 10.56° C 100% 937.6 hPa - - - -
1788328841 10.56° C 100% 937.6 hPa - - - -
1788327941 10.56° C 100% 937.5 hPa - - - -
1788327041 10.56° C 100% 937.4 hPa - - - -
1788326390 10.56° C 100% 937.3 hPa - - - -

* Rain since midnight (hover to see other rain measurements)
** Current wind speed in m/s (hover to see current wind gust speed)